Flag for Egypt Weather past 2 weeks in Port Said, Egypt

Now
79 °F

Clear.


Feels Like: 82 °F
Forecast: 79 / 87 °F
Wind: 8 mph from North

Location: Port Said Airport

Current Time: Sep 3, 2014 at 6:46:20 AM

Latest Report: Sep 3, 2014 at 6:00 AM


Visibility: 10 mi

Pressure: 29.80 "Hg

Humidity: 79%

Dew point: 72 °F

Location of Port SaidLocation

Historic Weather in Port Said — Graph

°F

Port Said temperature yesterday

Maximum temperature yesterday: 86 °F (at 1:00 PM)
Minimum temperature yesterday: 77 °F (at 6:00 AM)
Average temperature yesterday: 82 °F

Past Weeks' High & Low Weather Summary

 TemperatureHumidityPressure
High91 °F (Aug 24, 2:00 PM)100% (Aug 23, 6:00 PM)29.95 "Hg (Aug 23, 6:00 PM)
Low77 °F (Aug 20, 6:00 AM)40% (Aug 22, 11:00 PM)29.68 "Hg (Aug 24, 6:00 PM)
Average83 °F75%29.80 "Hg
* Reported Aug 19 5:00 AM — Sep 3 5:00 AM, Port Said, Weather by CustomWeather, © 2014

Note: Actual official high and low records may vary slightly from our data, if they occured in-between our weather recording intervals... More about our weather records

Advertising

Port Said weather history for previous 24 hours

 ConditionsComfort  
Time TempWeatherWind HumidityBarometerVisibility
5:00 AM
Sep 3
79 °FClear.7 mph79%29.71 "Hg10 mi
4:00 AM79 °FClear.7 mph79%29.80 "Hg10 mi
3:00 AM81 °FClear.7 mph74%29.83 "Hg10 mi
2:00 AM81 °FClear.7 mph74%29.83 "Hg10 mi
1:00 AM81 °FClear.8 mph70%29.83 "Hg10 mi
12:00 AM81 °FClear.9 mph70%29.83 "Hg10 mi
11:00 PM
Sep 2
81 °FClear.12 mph70%29.86 "Hg10 mi
10:00 PM81 °FClear.13 mph74%29.86 "Hg10 mi
9:00 PM79 °FPassing clouds.12 mph74%29.83 "HgN/A
8:00 PM82 °FPassing clouds.13 mph70%29.80 "HgN/A
7:00 PM82 °FSunny.12 mph70%29.80 "Hg10 mi
6:00 PM84 °FSunny.13 mph66%29.80 "Hg10 mi
5:00 PM86 °FPassing clouds.14 mph59%29.80 "HgN/A
4:00 PM86 °FPassing clouds.9 mph59%29.80 "HgN/A
3:00 PM86 °FPassing clouds.8 mph59%29.80 "HgN/A
2:00 PM86 °FScattered clouds.6 mph59%29.80 "HgN/A
1:00 PM86 °FScattered clouds.5 mph55%29.80 "HgN/A
12:00 PM84 °FPassing clouds.6 mph58%29.80 "HgN/A
11:00 AM84 °FPassing clouds.5 mph58%29.83 "HgN/A
10:00 AM82 °FPassing clouds.6 mph62%29.83 "HgN/A
9:00 AM81 °FPassing clouds.7 mph70%29.80 "HgN/A
8:00 AM79 °FScattered clouds.7 mph79%29.80 "HgN/A
7:00 AM77 °FScattered clouds.9 mph83%29.77 "HgN/A
6:00 AM77 °FClear.7 mph83%29.77 "Hg10 mi
Weather by CustomWeather, © 2014

See weather overviewHow to use our weather pages